OpenBCM V2.0.3 (Linux)

Packet Radio Mailbox

IZ3LSV

[San Dona' di P. JN]

 Login: GUEST





  
CX2SA  > KEPS     07.12.12 04:45l 94 Lines 2401 Bytes #999 (0) @ WW
BID : ORB12341.O
Read: GUEST
Subj: Orbital Elements  12341.OSCAR
Path: IZ3LSV<IQ5KG<IK1NHL<CX2SA
Sent: 121207/0244Z @:CX2SA.SAL.URY.SA #:242 [Salto] FBB7.00e $:ORB12341.O
From: CX2SA@CX2SA.SAL.URY.SA
To  : KEPS@AMSAT


HR AMSAT ORBITAL ELEMENTS FOR OSCAR SATELLITES
FROM WA5QGD FORT WORTH,TX December 6, 2012
BID: ORB12341.O
TO ALL RADIO AMATEURS BT

Satellite: AO-07
Catalog number: 07530
Epoch time:      12340.48756040
Element set:     549
Inclination:      101.4141 deg
RA of node:       331.1581 deg
Eccentricity:    0.0011801
Arg of perigee:   307.9850 deg
Mean anomaly:     052.0155 deg
Mean motion:   12.53593313 rev/day
Decay rate:       -2.7e-07 rev/day^2
Epoch rev:           74151
Checksum:              253

Satellite: FO-29
Catalog number: 24278
Epoch time:      12340.89596651
Element set:     994
Inclination:      098.5848 deg
RA of node:       059.0822 deg
Eccentricity:    0.0349972
Arg of perigee:   304.9642 deg
Mean anomaly:     051.9082 deg
Mean motion:   13.52992626 rev/day
Decay rate:       -7.0e-07 rev/day^2
Epoch rev:           80517
Checksum:              355

Satellite: SO-33
Catalog number: 25509
Epoch time:      12340.65603177
Element set:     383
Inclination:      031.4347 deg
RA of node:       083.2308 deg
Eccentricity:    0.0352493
Arg of perigee:   263.8600 deg
Mean anomaly:     092.1753 deg
Mean motion:   14.28928290 rev/day
Decay rate:       6.22e-06 rev/day^2
Epoch rev:           73719
Checksum:              302

Satellite: RS-22
Catalog number: 27939
Epoch time:      12341.55817341
Element set:     971
Inclination:      097.7989 deg
RA of node:       173.4568 deg
Eccentricity:    0.0014484
Arg of perigee:   078.6571 deg
Mean anomaly:     281.6250 deg
Mean motion:   14.64248844 rev/day
Decay rate:       3.10e-06 rev/day^2
Epoch rev:           49110
Checksum:              332

Satellite: VO-52
Catalog number: 28650
Epoch time:      12340.68389812
Element set:     282
Inclination:      097.5820 deg
RA of node:       003.1456 deg
Eccentricity:    0.0025715
Arg of perigee:   194.8768 deg
Mean anomaly:     165.1707 deg
Mean motion:   14.83422110 rev/day
Decay rate:       4.16e-06 rev/day^2
Epoch rev:           41039
Checksum:              299

Satellite: HO-68
Catalog number: 36122
Epoch time:      12341.29598676
Element set:      75
Inclination:      100.3389 deg
RA of node:       036.9914 deg
Eccentricity:    0.0007864
Arg of perigee:   076.3757 deg
Mean anomaly:     283.8230 deg
Mean motion:   13.16300379 rev/day
Decay rate:       -4.4e-07 rev/day^2
Epoch rev:           14303
Checksum:              309



Read previous mail | Read next mail


 20.09.2026 13:56:51lGo back Go up